Regional Weather Roundup
Issued by NWS

Home | Current Version | Previous Version | Graphics & Text | Print | Product List | Glossary On
Versions: 1 2 3 4 5 6 7 8 9 10 11 12 13 14 15 16 17 18 19 20 21 22 23 24 25 26 27 28 29 30 31 32 33 34 35 36 37 38 39 40 41 42 43 44 45 46 47 48 49 50
177
ASUS44 KMEG 011700
RWRTN
TENNESSEE HOURLY STATE WEATHER ROUNDUP
NATIONAL WEATHER SERVICE MEMPHIS TN
1100 AM CST WED MAR 01 2017

TNZ002-004-019-021-049-052-054-088>092-011800-
WEST TENNESSEE

CITY           SKY/WX    TMP DP  RH WIND       PRES   REMARKS
MEMPHIS INTL   PTSUNNY   65  53  65 NW18G24   29.94R
NWS MEMPHIS      N/A     65 N/A N/A MISG        N/A
JACKSON        MOSUNNY   67  55  65 W15       29.87R
UNION CITY     SUNNY     63  50  63 W17       29.85R
PARIS          SUNNY     66  48  52 W12       29.83R
$$

TNZ008-025-027-028-033-062-065-066-011800-
NORTH MIDDLE TENNESSEE

CITY           SKY/WX    TMP DP  RH WIND       PRES   REMARKS
NASHVILLE      RAIN      61  58  90 W10       29.85R FOG
CLARKSVILLE    MOSUNNY   69  52  54 W14G23    29.79R
SMYRNA         TSTM      61  59  93 SW13      29.86R FOG
CROSSVILLE     LGT RAIN  58  55  90 W12G17    29.90R
$$

TNZ061-075-076-078-094-096-097-011800-
SOUTH MIDDLE TENNESSEE

CITY           SKY/WX    TMP DP  RH WIND       PRES   REMARKS
TULLAHOMA      CLOUDY    70  61  73 SW14      29.87F
WINCHESTER     PTSUNNY   72  63  73 SW16      29.88F
COLUMBIA       CLOUDY   N/A N/A N/A SW9       29.86R
SHELBYVILLE    CLOUDY    64  59  82 W13       29.86F
$$

TNZ017-018-042-046-047-011800-
NORTHEAST TENNESSEE

CITY           SKY/WX    TMP DP  RH WIND       PRES   REMARKS
TRI CITIES     CLOUDY    66  57  72 SW3       29.88F
$$

TNZ012-013-036-069-073-074-011800-
CENTRAL EAST TENNESSEE

CITY           SKY/WX    TMP DP  RH WIND       PRES   REMARKS
KNOXVILLE      CLOUDY    71  59  65 SW29G35   29.85F
OAK RIDGE      LGT RAIN  60  56  86 W8        29.88F
GATLINBURG     PTSUNNY   72  55  56 SW17G32   29.85S
$$

TNZ083-085-099-011800-
SOUTHEAST TENNESSEE

CITY           SKY/WX    TMP DP  RH WIND       PRES   REMARKS
CHATTANOOGA    CLOUDY    69  61  75 S12G21    29.89F
$$

SKY/WX REPORTED AS FAIR MEANS FEW OR NO CLOUDS BELOW
12 THOUSAND FEET.





USA.gov is the U.S. government's official web portal to all federal, state and local government web resources and services.